[[{"header":{"parameterUnit":"m.s-1","parameterCategory":1,"la1":30.2992,"la2":30.254,"lo1":-89.0895,"lo2":-89.0443,"dy":0.0025,"dx":0.0025,"nx":19,"ny":19,"refTime":"2026-05-20T21:00:00:Z","depth":0,"parameterNumber":2,"parameterNumberName":"U-component_of_WINDS"},"data":[0,0,0,-1.6117,-1.6118,-1.619,-1.619,-1.6273,-1.6273,0,0,0,0,0,0,0,0,0,0,0,-1.6091,-1.6091,-1.6116,-1.6118,-1.619,-1.619,-1.6273,-1.6273,0,0,0,0,0,0,0,0,0,0,0,-1.6091,-1.6091,-1.6092,-1.6118,-1.619,-1.619,-1.6272,-1.6221,0,0,0,0,0,0,0,0,0,0,-1.6153,-1.6125,-1.6091,-1.6092,-1.6119,-1.619,-1.619,-1.6219,-1.6224,-1.6237,0,-1.6247,0,-1.6262,-1.6278,-1.6279,0,0,0,-1.6121,-1.6121,-1.6144,-1.6092,-1.6119,-1.6189,-1.6158,-1.6222,-1.6228,-1.6244,-1.6248,-1.6252,-1.6263,-1.6279,-1.6279,-1.6341,-1.6341,0,0,-1.6117,-1.6101,-1.614,-1.6148,-1.6137,-1.6156,-1.616,-1.6226,-1.6229,-1.6249,-1.6254,-1.6264,-1.6279,-1.628,-1.6341,-1.6341,0,0,0,-1.6104,-1.6098,-1.612,-1.6144,-1.6158,-1.6158,-1.6163,-1.6227,-1.6235,-1.6255,-1.6265,-1.628,-1.6281,-1.6341,-1.6341,-1.6332,0,0,0,-1.6102,-1.609,-1.6118,-1.6109,-1.6157,-1.6193,-1.6162,-1.6231,-1.6239,-1.6265,-1.628,-1.6281,-1.634,-1.6341,-1.6332,-1.633,0,0,0,-1.6088,-1.6089,-1.6098,-1.6108,-1.6139,-1.6193,-1.6205,-1.6233,-1.6245,-1.6279,-1.6282,-1.634,-1.6341,-1.6332,-1.633,-1.6341,0,0,0,-1.6068,-1.6089,-1.6097,-1.6125,-1.6138,-1.6187,-1.6205,-1.6242,-1.627,-1.628,-1.634,-1.6341,-1.6332,-1.633,-1.6341,-1.6347,-1.6349,0,0,-1.6085,-1.609,-1.6108,-1.6117,-1.6161,-1.6177,-1.622,-1.626,-1.6278,-1.6319,-1.632,-1.6332,-1.633,-1.6341,-1.6362,-1.6363,0,0,0,-1.6107,-1.612,-1.6135,-1.6161,-1.6193,-1.622,-1.6256,-1.6271,-1.6307,-1.6296,-1.634,-1.6339,-1.6346,-1.635,-1.6351,-1.6358,-1.6342,-1.6342,-1.6342,-1.6108,-1.613,-1.616,-1.619,-1.6216,-1.6253,-1.6275,-1.6301,-1.6316,-1.6326,-1.6338,-1.6348,-1.6352,-1.6352,-1.6359,-1.6343,-1.6343,-1.6343,-1.6343,-1.6134,-1.6155,-1.6174,-1.621,-1.6233,-1.6263,-1.6299,-1.6309,-1.6339,-1.6341,-1.6348,-1.6347,-1.6353,-1.636,-1.6343,-1.6343,-1.6343,-1.6343,-1.6343,-1.6136,-1.615,-1.6169,-1.6209,-1.6237,-1.6267,-1.6296,-1.6316,-1.6335,-1.6342,-1.6356,-1.6356,-1.6358,-1.6347,-1.6348,-1.6348,-1.6348,-1.6348,-1.6348,-1.6131,-1.6152,-1.6174,-1.621,-1.623,-1.6257,-1.6295,-1.6314,-1.634,-1.6352,-1.6353,-1.6366,-1.635,-1.6345,-1.6348,-1.6348,-1.6348,-1.6348,-1.6348,-1.6148,-1.6148,-1.6182,-1.6201,-1.6245,-1.6271,-1.6296,-1.6334,-1.6353,-1.6366,-1.6378,-1.6363,-1.6369,-1.6369,-1.6365,-1.6373,-1.6373,-1.6373,-1.6373,-1.6149,-1.6155,-1.6194,-1.6224,-1.6255,-1.6282,-1.6318,-1.6347,-1.6377,-1.639,-1.6392,-1.6389,-1.6387,-1.6394,-1.6393,-1.639,-1.6405,-1.6405,-1.6405,-1.6161,-1.617,-1.6198,-1.6228,-1.6264,-1.6293,-1.6329,-1.6361,-1.6395,-1.6406,-1.64,-1.6399,-1.6394,-1.6391,-1.6402,-1.64,-1.6394,0,0]},{"header":{"parameterUnit":"m.s-1","parameterCategory":1,"la1":30.2992,"la2":30.254,"lo1":-89.0895,"lo2":-89.0443,"dy":0.0025,"dx":0.0025,"nx":19,"ny":19,"refTime":"2026-05-20T21:00:00:Z","depth":0,"parameterNumber":3,"parameterNumberName":"V-component_of_WINDS"},"data":[0,0,0,2.76,2.7601,2.764,2.764,2.7691,2.7692,0,0,0,0,0,0,0,0,0,0,0,2.7591,2.7592,2.76,2.7601,2.764,2.764,2.7691,2.7692,0,0,0,0,0,0,0,0,0,0,0,2.7591,2.7591,2.7592,2.7601,2.764,2.764,2.7691,2.7661,0,0,0,0,0,0,0,0,0,0,2.7623,2.7617,2.7591,2.7592,2.7601,2.764,2.764,2.7659,2.7663,2.7675,0,2.7688,0,2.7691,2.7696,2.7696,0,0,0,2.7599,2.7615,2.7623,2.7592,2.7602,2.764,2.7622,2.7661,2.7665,2.768,2.7689,2.7691,2.7692,2.7696,2.7696,2.7779,2.778,0,0,2.7597,2.7599,2.762,2.7626,2.7621,2.762,2.7623,2.7664,2.7673,2.7689,2.7692,2.7693,2.7696,2.7697,2.7779,2.7779,0,0,0,2.7592,2.7598,2.7605,2.7624,2.7631,2.7622,2.7624,2.7671,2.7673,2.7692,2.7693,2.7697,2.7697,2.7778,2.7779,2.7807,0,0,0,2.7591,2.7595,2.7604,2.7606,2.763,2.7652,2.7631,2.7671,2.7675,2.7693,2.7697,2.7698,2.7778,2.7779,2.7805,2.7819,0,0,0,2.7588,2.7595,2.7601,2.7606,2.7623,2.7651,2.7655,2.7672,2.7676,2.7696,2.7698,2.7777,2.7778,2.7803,2.7816,2.7842,0,0,0,2.7585,2.7624,2.7602,2.7646,2.7623,2.7668,2.7655,2.7688,2.7709,2.7697,2.7778,2.7779,2.7802,2.7814,2.784,2.7863,2.7874,0,0,2.7636,2.763,2.7656,2.7637,2.7688,2.7662,2.7716,2.7731,2.773,2.7763,2.7765,2.7805,2.7816,2.7841,2.7931,2.7939,0,0,0,2.7673,2.7692,2.7705,2.7725,2.7739,2.7752,2.7759,2.7765,2.7793,2.7748,2.7821,2.7828,2.7842,2.7853,2.786,2.7873,2.7784,2.7784,2.7784,2.7748,2.7746,2.7789,2.7792,2.7812,2.782,2.7835,2.7844,2.7835,2.7852,2.7862,2.7917,2.793,2.7935,2.7948,2.7874,2.7875,2.7875,2.7875,2.7822,2.7848,2.7837,2.7874,2.7872,2.7902,2.7912,2.7904,2.7932,2.7909,2.7922,2.7897,2.7944,2.7956,2.7877,2.7876,2.7876,2.7876,2.7876,2.7871,2.7883,2.7891,2.7921,2.7944,2.7945,2.7973,2.7969,2.7965,2.7978,2.7987,2.7987,2.7986,2.7983,2.7983,2.7983,2.7984,2.7984,2.7984,2.7918,2.7926,2.795,2.797,2.7983,2.7999,2.8008,2.8021,2.8033,2.8028,2.8028,2.8017,2.795,2.7933,2.7987,2.7986,2.7986,2.7986,2.7985,2.7993,2.7976,2.8014,2.8027,2.805,2.8073,2.8068,2.8094,2.8103,2.8117,2.8104,2.8055,2.8049,2.8043,2.8029,2.8105,2.8105,2.8105,2.8105,2.8034,2.8031,2.807,2.8091,2.8112,2.8112,2.8154,2.8161,2.8166,2.8172,2.816,2.8141,2.8136,2.8133,2.8125,2.8112,2.8207,2.8207,2.8207,2.808,2.8079,2.8116,2.8123,2.814,2.8155,2.8194,2.8219,2.822,2.8211,2.8176,2.8172,2.8141,2.8131,2.8121,2.8109,2.8085,0,0]}]]